Location: Miami
(25.6830°N, 80.1700°W)
Time: 22:15:33
(UTC-04:00)

ISS - Visible Passes

Search period start: 20 July 2018 00:00
Search period end: 30 July 2018 00:00
Orbit: 402 x 408 km, 51.6° (Epoch: 21 July)

Date Brightness Start Highest point End Pass type
(mag) Time Alt. Az. Time Alt. Az. Time Alt. Az.
20 Jul -2.3 05:43:42 10° NNW 05:46:50 40° NE 05:49:57 10° ESE visible
20 Jul -3.9 20:41:07 10° SSW 20:44:20 63° SE 20:47:33 10° NE visible
21 Jul -0.9 04:52:11 10° N 04:54:38 19° NE 04:57:02 10° E visible
21 Jul -0.6 21:26:31 10° W 21:28:43 17° NW 21:30:57 10° N visible
22 Jul -3.8 05:35:46 10° NW 05:38:59 54° SW 05:42:11 10° SSE visible
22 Jul -1.9 20:33:28 10° WSW 20:36:29 35° NW 20:39:30 10° NNE visible
23 Jul -1.5 04:49:07 18° ESE 04:49:07 18° ESE 04:50:05 10° SE visible
